Back to catalog

STARLINK-35327

AliveCommunicationsVLEO
NORAD 66439·PAYLOAD·🇺🇸 United States

Launched Nov 11, 2025 from Cape Canaveral Space Force Station

Loading…

Next Passes (next 24 hours)

TLE

FreshSource: CelesTrak SupGP

Epoch: Sep 14, 2026, 21:30 UTC

1 66439C 25259T   26257.89631944  .00010422  00000+0  37755-3 0  2572
2 66439  43.0001 285.4152 0001470 265.2708  54.2355 15.27566867    15

Track STARLINK-35327 in real time with AllMySat

Download on the App Store